Overview Statistics Trail Chart Weather Telemetry Raw packets
 

This is the latest recevied weather packets stored in our database for station/object N3TJJ-2. If no packets are shown the sender has not sent any weather packets the latest 10 day(s).

<< 62 63 64 65 66 67 68 >>
Time Temp. Humidity Pressure Rain* Wind** Luminosity Snow
1788073964 16.11° C 77% 1024.4 hPa 0 mm - - -
1788073604 16.67° C 77% 1024.3 hPa 0 mm - - -
1788073261 16.67° C 77% 1024.2 hPa 0 mm - - -
1788072898 16.67° C 77% 1024.3 hPa 0 mm - - -
1788072554 16.67° C 77% 1024.3 hPa 0 mm - - -
1788072166 16.11° C 78% 1024.4 hPa 0 mm - - -
1788071804 16.11° C 78% 1024.4 hPa 0 mm - - -
1788071459 16.11° C 78% 1024.4 hPa 0 mm - - -
1788071100 16.67° C 77% 1024.5 hPa 0 mm - - -
1788070739 16.67° C 77% 1024.4 hPa 0 mm - - -
1788070364 16.11° C 77% 1024.4 hPa 0 mm - - -
1788070014 15.56° C 76% 1024.5 hPa 0 mm - - -
1788069647 15.56° C 75% 1024.7 hPa 0 mm - - -
1788069290 16.11° C 75% 1024.8 hPa 0 mm - - -
1788068935 16.11° C 76% 1024.7 hPa 0 mm - - -
1788068564 15.56° C 76% 1024.6 hPa 0 mm - - -
1788068222 15.56° C 77% 1024.5 hPa 0 mm - - -
1788067853 15.56° C 76% 1024.5 hPa 0 mm - - -
1788067484 16.11° C 77% 1024.4 hPa 0 mm - - -
1788067157 16.11° C 77% 1024.4 hPa 0 mm - - -
1788066776 16.67° C 78% 1024.4 hPa 0 mm - - -
1788066416 17.22° C 77% 1024.5 hPa 0 mm - - -
1788066068 17.22° C 77% 1024.4 hPa 0 mm - - -
1788065697 17.78° C 77% 1024.4 hPa 0 mm - - -
1788065345 17.22° C 77% 1024.5 hPa 0 mm - - -

* Rain latest hour (hover to see other rain measurements)
** Current wind speed in m/s (hover to see current wind gust speed)